Regional Weather Roundup
Issued by NWS Binghamton, NY

Home | Current Version | Previous Version | Text Only | Print | Product List | Glossary On
Versions: 1 2 3 4 5 6 7 8 9 10 11 12 13 14 15 16 17 18 19 20 21 22 23 24 25 26 27
000
ASUS41 KBGM 011810
RWRBGM

REGIONAL WEATHER ROUNDUP
NATIONAL WEATHER SERVICE BINGHAMTON NY
200 PM EDT SUN MAY 01 2016

Note: "fair" indicates few or no clouds below 12,000 feet with no
significant weather and/or obstructions to visibility.

* = Station(s) that does not report precipitation, such as rain,
snow, etc, also no thunder or fog.

NYZ009-015>018-022>025-036-037-044>046-055>057-062-011900
...Central New York...

CITY           SKY/WX    TMP DP  RH WIND       PRES   REMARKS
Binghamton     CLOUDY    42  40  92 S15G21    30.02F
Cortland       CLOUDY    45  43  93 S8        30.02F
Dansville      CLOUDY    61  51  70 SE14      29.91F
Elmira         CLOUDY    52  44  74 S10       29.98F
Ithaca         CLOUDY    47  43  86 S15       30.00F
Hamilton       CLOUDY    45  41  87 S13G18    30.04F
Hornell        CLOUDY    57  52  82 S10       29.96S
Monticello     CLOUDY    39  39 100 SE10      30.13S WCI  32
Norwich        CLOUDY    43  39  87 S7        30.07S
Penn Yan       CLOUDY    54  47  77 S13       29.95F
Rome           LGT RAIN  48  47  96 SE13      30.06F FOG
Sidney         CLOUDY    45  45 100 S5        30.07S
Syracuse       CLOUDY    47  42  83 SE10      30.01F
$$

PAZ038>040-043-044-047-048-072-011900
...Northeast Pennsylvania...

CITY           SKY/WX    TMP DP  RH WIND       PRES   REMARKS
Hazleton       DRIZZLE   43  41  93 SE10      30.10S
Scranton       RAIN      46  42  86 CALM      30.08S FOG
$$
&&
KEY
WCI = Wind Chill Index
VSB = Visibility
HX  = Heat Index
$$




USA.gov is the U.S. government's official web portal to all federal, state and local government web resources and services.